Location: Kunchanapalle
(16.4623°N, 80.6176°E)
Time: 08:57:30
(UTC+00:00)

Meteor 2-10 Rocket - Pass Details

Date: 13 August 2020
Orbit: 734 x 884 km, 81.2° (Epoch: 18 September)

Event Time Altitude Azimuth Distance (km) Brightness Sun altitude
Exits shadow 23:29:09 12° 216° (SW) 2,140 5.3 -12.8°
Maximum altitude 23:33:22 34° 278° (W) 1,233 4.1 -11.8°
Drops below altitude 10° 23:38:06 10° 343° (NNW) 2,333 6.0 -10.8°
Sets 23:40:43 0° 353° (N) 3,288 6.9 -10.2°
